NOAA 16 DEB, 41272

Orbit data source: Space-Track

NOAA 16 DEB, 41272 is space debris in SSO originally from a launch on Thu, 21 Sep 2000 UTC launched from the Air Force Western Test Range (AFWTR). Debris objects in space refer to the collection of defunct objects orbiting the Earth. Examples of debris include non-operational satellites, rocket bodies, and fragments generated from explosions, collisions, or faulty payload assembly.

Loading next visibility...
Identifier
41272, 2000-055FY
Orbit
SSO
Country
Flag of USUS
Related business
Manufacturer
Unknown
Mission
Spacecraft
Bus & Motor
Unknown
Mass
Unknown
Launch date (UTC)
2000-09-21 (25 years ago)
Launch vehicle
Unknown
Launch site
Air Force Western Test Range (AFWTR)
Object type
Payload
Rocket body
Debris
Shape & HBR
Unknown shape, 0.1 m
Radar Cross Section
Small (<0.1 m²)

Expand to show TLE details & history
Last TLE update: 15 hours ago

TLE from 15 hours ago
0 NOAA 16 DEB
1 41272U 00055FY  25299.63296818  .00005157  00000-0  22509-2 0  9994
2 41272  98.7538   3.8614 0027909  87.3559 273.0814 14.24092395507077
Epoch: 2025-10-26T15:11Z
TLE epoch observation values (Epoch: 2025-10-26T15:11:28.450Z)
Latitude
-0.00002°
Longitude
100.74649°
Altitude
813.442 km
Speed
7.447 km/s
True Right ascension
00h 15m 26s
True Declination
0° 00' 00"
Sunlit
Object was in full shadow at epoch
Visualization orbit readout
Latitude
Unknown
Longitude
Unknown
Altitude
Unknown
Speed
Unknown
Apparent Right ascension
Unknown
Apparent Declination
Unknown
Sunlit
N/A
Visualization observer readout
Local Sidereal Time
01:14:59
Azimuth
Unknown
Elevation
Unknown
Doppler factor
Unknown
Orbital elements
Apogee altitude
828.759 km
Perigee altitude
788.643 km
Semi-major axis
7,186.838 km
Eccentricity
0.00279
Inclination
98.7538°
RAAN
3.8614°
Arg. of periapsis
87.3559°
True anomaly
272.76199°
Mean anomaly
273.0814°
Eccentric anomaly
272.9217°
Mean motion
3.56235 °/min
Orbital period
101.06 mins
BSTAR
0.0022509
Loading maneuver chart data...
Computing Atmospheric mass density...
Loading historical data...
Loading historical data...
Loading historical data...
Loading historical data...
Loading historical data...
Loading historical data...
Loading historical data...

Documentation

Showing up to 5 results
|